Location: Erlenbrunn
(49.1717°N, 7.6142°E)
Time: 05:19:16
(UTC+00:00)

Cosmos 1821 Rocket - Pass Details

Date: 25 November 2020
Orbit: 946 x 1004 km, 82.9° (Epoch: 27 January)

Event Time Altitude Azimuth Distance (km) Brightness Sun altitude
Rises 18:27:48 0° 350° (N) 3,658 7.1 -27.2°
Reaches altitude 10° 18:30:17 10° 351° (N) 2,715 6.4 -27.6°
Maximum altitude 18:36:32 89° 76° (ENE) 983 3.9 -28.6°
Enters shadow 18:38:29 48° 171° (S) 1,265 4.4 -28.9°
